Date String (YYYY-MM-DD hh:mm:ss) UTC,Instrument flags,Ambient pressure (hPa),Sample flow (lpm),Bypass flow (lpm),Sample temperature (°C),Ambient temperature (°C),ASC tube jacket temperature (°C),LED temperature (°C),Box temperature (°C),Sample RH (%),Span deviation,Mass concentration (μg/m³),Mass concentration (μg/m³),Mass concentration (μg/m³)
DateTimeUTC,F1_M11,P_M11,Q1_M11,Q2_M11,T1_M11,T2_M11,T3_M11,T4_M11,T5_M11,U1_M11,ZSPAN_M11,X0_M11,X2_M11,X1_M11
2023-01-08 14:00:00,,0827.7,5.01,0.00,22.2,20.8,00.0,31.2,23.9,11.8,0001.0,0011.48,0007.72,0007.61
2023-01-08 14:01:00,,0827.6,5.00,0.00,22.3,21.6,00.0,31.2,24.1,12.0,0001.1,0011.64,0008.35,0008.24
2023-01-08 14:02:00,,0827.5,5.00,0.00,22.4,22.5,00.0,31.2,24.3,12.1,0001.3,0012.50,0009.06,0008.91
2023-01-08 14:03:00,,0827.5,5.00,0.00,22.5,23.0,00.0,31.2,24.5,12.2,0001.9,0012.97,0009.68,0009.51
2023-01-08 14:04:00,,0827.5,4.99,0.00,22.6,22.6,00.0,31.3,24.5,12.2,0001.9,0013.17,0010.17,0010.00
2023-01-08 14:05:00,,0827.5,5.00,0.00,22.6,22.1,00.0,31.3,24.4,12.2,0001.8,0013.85,0010.63,0010.43
2023-01-08 14:06:00,,0827.5,4.99,0.00,22.5,21.7,00.0,31.3,24.2,12.1,0002.1,0014.24,0010.95,0010.76
2023-01-08 14:07:00,,0827.5,5.00,0.00,22.5,21.4,00.0,31.3,24.1,12.1,0002.3,0014.59,0011.22,0011.01
2023-01-08 14:08:00,,0827.6,5.00,0.00,22.5,21.2,00.0,31.3,24.1,12.0,0002.5,0014.89,0011.44,0011.21
2023-01-08 14:09:00,,0827.6,5.00,0.00,22.4,21.1,00.0,31.3,24.1,12.0,0002.5,0015.18,0011.67,0011.44
2023-01-08 14:10:00,,0827.5,5.02,0.00,22.4,21.1,00.0,31.3,24.1,12.0,0002.4,0015.48,0011.91,0011.67
2023-01-08 14:11:00,,0827.5,5.03,0.00,22.4,21.1,00.0,31.3,24.1,12.0,0002.4,0015.61,0012.02,0011.78
2023-01-08 14:12:00,,0827.5,5.01,0.00,22.4,21.1,00.0,31.3,24.1,12.0,0002.3,0015.62,0012.00,0011.77
2023-01-08 14:13:00,,0827.6,4.99,0.00,22.4,21.1,00.0,31.3,24.1,12.0,0002.2,0015.58,0011.94,0011.72
2023-01-08 14:14:00,,0827.7,4.99,0.00,22.4,21.1,00.0,31.3,24.1,12.0,0002.1,0015.45,0011.83,0011.61
2023-01-08 14:15:00,,0827.7,5.00,0.00,22.4,21.1,00.0,31.3,24.1,12.0,0002.1,0015.29,0011.70,0011.47
2023-01-08 14:16:00,,0827.6,5.00,0.00,22.4,21.0,00.0,31.3,24.1,11.9,0002.1,0014.99,0011.52,0011.31
2023-01-08 14:17:00,,0827.5,5.00,0.00,22.4,21.0,00.0,31.3,24.1,11.9,0002.0,0014.88,0011.42,0011.20
2023-01-08 14:18:00,,0827.4,5.00,0.00,22.4,21.0,00.0,31.3,24.1,11.8,0002.0,0014.82,0011.32,0011.09
2023-01-08 14:19:00,,0827.4,5.00,0.00,22.4,21.0,00.0,31.2,24.1,11.7,0001.9,0014.64,0011.17,0010.95
2023-01-08 14:20:00,,0827.4,4.99,0.00,22.4,20.9,00.0,31.2,24.1,11.8,0001.9,0014.55,0011.10,0010.88
2023-01-08 14:21:00,,0827.4,5.00,0.00,22.3,20.9,00.0,31.2,24.0,11.8,0002.1,0014.49,0011.04,0010.81
2023-01-08 14:22:00,,0827.4,5.00,0.00,22.3,20.8,00.0,31.2,24.0,11.8,0002.3,0014.36,0010.92,0010.70
2023-01-08 14:23:00,,0827.4,5.01,0.00,22.3,20.7,00.0,31.2,24.0,11.8,0002.3,0014.14,0010.73,0010.51
2023-01-08 14:24:00,,0827.3,5.01,0.00,22.3,20.7,00.0,31.2,23.9,11.9,0002.3,0013.88,0010.53,0010.32
2023-01-08 14:25:00,,0827.4,4.99,0.00,22.3,20.7,00.0,31.2,23.9,11.9,0002.4,0013.71,0010.34,0010.13
2023-01-08 14:26:00,,0827.5,5.00,0.00,22.2,20.8,00.0,31.2,23.9,11.9,0002.6,0013.58,0010.19,0009.98
2023-01-08 14:27:00,,0827.4,5.00,0.00,22.3,21.4,00.0,31.1,24.0,11.8,0002.7,0013.44,0010.05,0009.84
2023-01-08 14:28:00,,0827.2,4.99,0.00,22.4,22.4,00.0,31.1,24.3,11.7,0002.9,0013.16,0009.80,0009.61
2023-01-08 14:29:00,,0827.3,5.00,0.00,22.5,23.0,00.0,31.2,24.5,11.4,0003.0,0012.73,0009.45,0009.29
2023-01-08 14:30:00,,0827.3,5.00,0.00,22.6,22.7,00.0,31.2,24.5,11.4,0003.3,0012.47,0009.18,0009.01
2023-01-08 14:31:00,,0827.3,4.99,0.00,22.6,22.3,00.0,31.3,24.4,11.4,0003.3,0012.36,0009.01,0008.83
2023-01-08 14:32:00,,0827.2,5.00,0.00,22.6,21.9,00.0,31.3,24.4,11.3,0003.3,0012.12,0008.75,0008.57
2023-01-08 14:33:00,,0827.3,5.00,0.00,22.5,21.7,00.0,31.3,24.3,10.7,0003.4,0011.83,0008.39,0008.20
2023-01-08 14:34:00,,0827.4,5.01,0.00,22.5,21.5,00.0,31.3,24.3,10.2,0003.7,0011.45,0008.03,0007.83
2023-01-08 14:35:00,,0827.5,5.01,0.00,22.5,21.4,00.0,31.3,24.3,10.7,0003.8,0011.14,0007.75,0007.55
2023-01-08 14:36:00,,0827.5,5.01,0.00,22.5,21.3,00.0,31.3,24.3,11.0,0003.6,0010.98,0007.62,0007.43
2023-01-08 14:37:00,,0827.5,5.01,0.00,22.5,21.2,00.0,31.3,24.2,10.9,0003.6,0010.78,0007.41,0007.24
2023-01-08 14:38:00,,0827.4,4.99,0.00,22.5,21.1,00.0,31.3,24.2,10.9,0003.7,0010.56,0007.20,0007.04
2023-01-08 14:39:00,,0827.4,4.99,0.00,22.5,21.0,00.0,31.3,24.2,11.1,0003.5,0010.50,0007.12,0006.93
2023-01-08 14:40:00,,0827.4,5.01,0.00,22.4,21.0,00.0,31.3,24.1,11.2,0003.2,0010.56,0007.15,0006.96
2023-01-08 14:41:00,,0827.4,4.99,0.00,22.4,21.0,00.0,31.3,24.1,11.2,0002.5,0010.56,0007.16,0006.98
2023-01-08 14:42:00,,0827.4,5.00,0.00,22.4,21.1,00.0,31.3,24.1,11.3,0002.2,0010.43,0007.05,0006.88
2023-01-08 14:43:00,,0827.4,5.01,0.00,22.4,21.0,00.0,31.3,24.1,11.4,0002.0,0010.41,0007.05,0006.89
2023-01-08 14:44:00,,0827.2,5.03,0.00,22.4,21.0,00.0,31.3,24.1,11.4,0002.2,0010.50,0007.21,0007.06
2023-01-08 14:45:00,,0827.4,5.00,0.00,22.4,20.9,00.0,31.3,24.1,11.4,0002.3,0010.77,0007.44,0007.31
2023-01-08 14:46:00,,0827.4,5.00,0.00,22.3,20.9,00.0,31.3,24.0,11.4,0002.5,0010.95,0007.59,0007.46
2023-01-08 14:47:00,,0827.2,4.99,0.00,22.3,20.8,00.0,31.3,24.0,11.3,0002.7,0010.97,0007.60,0007.46
2023-01-08 14:48:00,,0827.2,4.98,0.00,22.3,20.8,00.0,31.2,24.0,11.3,0002.7,0011.00,0007.65,0007.50
2023-01-08 14:49:00,,0827.2,4.99,0.00,22.3,20.8,00.0,31.2,23.9,11.4,0002.5,0011.06,0007.71,0007.58
2023-01-08 14:50:00,,0827.2,5.01,0.00,22.3,20.7,00.0,31.2,23.9,11.4,0002.8,0011.16,0007.77,0007.63
2023-01-08 14:51:00,,0827.3,5.00,0.00,22.2,20.6,00.0,31.2,23.8,11.4,0003.0,0011.37,0007.84,0007.69
2023-01-08 14:52:00,,0827.4,5.00,0.00,22.2,20.5,00.0,31.2,23.8,11.4,0003.5,0011.41,0007.89,0007.76
2023-01-08 14:53:00,,0827.3,5.00,0.00,22.2,20.6,00.0,31.2,23.8,11.5,0003.7,0011.45,0007.94,0007.82
2023-01-08 14:54:00,,0827.3,5.02,0.00,22.2,21.6,00.0,31.1,24.0,11.4,0003.9,0011.48,0007.97,0007.85
2023-01-08 14:55:00,,0827.5,5.00,0.00,22.4,22.6,00.0,31.1,24.3,11.4,0004.0,0011.54,0008.00,0007.87
2023-01-08 14:56:00,,0827.5,4.99,0.00,22.5,22.9,00.0,31.1,24.5,11.3,0004.2,0011.58,0008.01,0007.87
2023-01-08 14:57:00,,0827.5,5.00,0.00,22.5,22.5,00.0,31.2,24.4,11.2,0004.3,0011.69,0008.03,0007.87
2023-01-08 14:58:00,,0827.6,5.00,0.00,22.5,22.2,00.0,31.2,24.4,11.2,0004.4,0011.76,0008.07,0007.91
2023-01-08 14:59:00,,0827.5,5.00,0.00,22.5,21.9,00.0,31.3,24.3,11.1,0004.5,0011.81,0008.09,0007.92
